Flag for Nicaragua Weather past 2 weeks in Managua, Nicaragua

Now
79 °F

Scattered clouds.


Feels Like: 82 °F
Forecast: 78 / 91 °F
Wind: 5 mph from East

Location: Managua A. C. Sandino

Current Time: Jul 1, 2015 at 7:48:09 AM

Latest Report: Jul 1, 2015 at 7:00 AM


Visibility: N/A

Pressure: 29.89 "Hg

Humidity: 79%

Dew point: 72 °F

Location of ManaguaLocation

Historic Weather in Managua — Graph

°F

Managua temperature yesterday

Maximum temperature yesterday: 93 °F (at 1:00 PM)
Minimum temperature yesterday: 77 °F (at 6:00 AM)
Average temperature yesterday: 85 °F

Past Weeks' High & Low Weather Summary

 TemperatureHumidityPressure
High95 °F (Jun 24, 1:00 PM)94% (Jun 18, 5:00 AM)29.92 "Hg (Jun 18, 5:00 AM)
Low64 °F (Jun 25, 7:00 AM)41% (Jun 30, 2:00 PM)29.68 "Hg (Jun 17, 4:00 PM)
Average84 °F70%29.83 "Hg
* Reported Jun 16 6:00 AM — Jul 1 6:00 AM, Managua, Weather by CustomWeather, © 2015

Note: Actual official high and low records may vary slightly from our data, if they occured in-between our weather recording intervals... More about our weather records

Advertising

Managua weather history for previous 24 hours

 ConditionsComfort  
Time TempWeatherWind HumidityBarometerVisibility
6:00 AM
Wed, Jul 1
75 °FScattered clouds.5 mph89%29.86 "HgN/A
5:00 AM75 °FPassing clouds.7 mph83%29.86 "HgN/A
4:00 AM75 °FClear.5 mph83%29.86 "Hg10 mi
3:00 AM77 °FPassing clouds.5 mph79%29.86 "HgN/A
12:00 AM81 °FClear.14 mph74%29.89 "Hg10 mi
11:00 PM
Tue, Jun 30
81 °FPassing clouds.12 mph70%29.89 "HgN/A
10:00 PM82 °FClear.14 mph62%29.92 "Hg10 mi
9:00 PM84 °FPassing clouds.21 mph66%29.89 "HgN/A
8:00 PM82 °FClear.14 mph58%29.86 "Hg10 mi
7:00 PM86 °FClear.18 mph52%29.83 "Hg10 mi
6:00 PM90 °FPartly sunny.16 mph46%29.80 "HgN/A
4:00 PM91 °FPassing clouds.16 mph46%29.77 "HgN/A
3:00 PM93 °FPassing clouds.18 mph41%29.77 "HgN/A
2:00 PM93 °FPassing clouds.28 mph41%29.83 "HgN/A
1:00 PM93 °FScattered clouds.23 mph44%29.83 "Hg6 mi
12:00 PM91 °FScattered clouds.21 mph49%29.86 "Hg6 mi
11:00 AM91 °FScattered clouds.18 mph46%29.89 "Hg6 mi
9:00 AM86 °FScattered clouds.21 mph62%29.92 "Hg6 mi
8:00 AM84 °FScattered clouds.16 mph66%29.89 "Hg6 mi
7:00 AM81 °FScattered clouds.7 mph84%29.89 "HgN/A
Weather by CustomWeather, © 2015

See weather overviewHow to use our weather pages